LIPZ Airport Information

Runway Information
Runway 04L Length 9121 ft width 148 ft
Elevation 7 ft Threshold 308 ft Heading 42
Runway 22R Length 9121 ft Width 148 ft
Elevation 7 ft Threshold 0 ft Heading 222
Runway 04R Length 10827 ft width 148 ft
Elevation 7 ft Threshold 0 ft Heading 42
Runway 22L Length 10827 ft Width 148 ft
Elevation 7 ft Threshold 0 ft Heading 222
Airport Frequencies
Type APP Name APP Frequency 118.9 MHZ
Type ATIS Name ATIS Frequency 122.225 MHZ
Type GND Name GND Frequency 121.7 MHZ
Type TWR Name TWR Frequency 120.2 MHZ
Airport Navaids
Type VOR-DME Name Tessera Frequency 115300 KHZ
Type NDB Name Venezia Frequency 379 KHZ
Airport Weather Information & NOTAM
ADDS - METARS form results

(0135 UTC 19 August 2018)
 
METAR text: LIPZ 190120Z 01006KT CAVOK 22/17 Q1017 NOSIG
Conditions at: LIPZ (VENEZIA/TESSERA , IT) observed 0120 UTC 19 August 2018
Temperature: 22.0°C (72°F)
Dewpoint: 17.0°C (63°F) [RH = 73%]
Pressure (altimeter): 30.03 inches Hg (1017.0 mb)
Winds: from the N (10 degrees) at 7 MPH (6 knots; 3.1 m/s)
Visibility: 6 or more miles (10+ km)
Ceiling: ceiling and visibility are OK
Clouds: unknown
Weather: no significant weather observed at this time

METAR text: LIPZ 190050Z 03005KT CAVOK 22/16 Q1017 NOSIG
Conditions at: LIPZ (VENEZIA/TESSERA , IT) observed 0050 UTC 19 August 2018
Temperature: 22.0°C (72°F)
Dewpoint: 16.0°C (61°F) [RH = 69%]
Pressure (altimeter): 30.03 inches Hg (1017.0 mb)
Winds: from the NNE (30 degrees) at 6 MPH (5 knots; 2.6 m/s)
Visibility: 6 or more miles (10+ km)
Ceiling: ceiling and visibility are OK
Clouds: unknown
Weather: no significant weather observed at this time